Location: Beuvrequen
(50.8014°N, 1.6652°E)
Time: 02:17:37
(UTC+00:00)

Cosmos 2084 Rocket - Pass Details

Date: 16 October 2021
Orbit: 508 x 671 km, 62.8° (Epoch: 28 November)

Event Time Altitude Azimuth Distance (km) Brightness Sun altitude
Rises 17:57:37 0° 223° (SW) 2,607 7.5 -10.1°
Reaches altitude 10° 17:59:46 10° 223° (SW) 1,723 6.5 -10.4°
Maximum altitude 18:03:37 89° 131° (SE) 518 3.1 -11.0°
Drops below altitude 10° 18:07:33 10° 45° (NE) 1,760 5.5 -11.6°
Enters shadow 18:07:43 - 45° (NE) 1,829 5.6 -11.7°
